DW4168 Weather Reports


time (UTC)temp
C
wind
direction
speed
KPH
gust
KPH
rain 1hr
cm
rain 24hr
cm
rain mn
cm
humidity
%
barometer
mb
20260504211514 8 257 14.5 22.5 0.00 0.15 0.00 75 1003.2
20260504210021 8 253 19.3 25.7 0.00 0.15 0.00 75 1003.1
20260504204513 9 252 14.5 24.1 0.00 0.15 0.00 72 1003.0
20260504203012 8 266 12.9 19.3 0.00 0.18 0.00 73 1003.0
20260504201513 8 257 11.3 17.7 0.00 0.18 0.00 73 1003.2
20260504200011 8 284 8.0 17.7 0.00 0.18 0.00 74 1003.1
20260504194553 7 325 9.7 14.5 0.00 0.18 0.00 73 1003.3
20260504193051 7 327 9.7 19.3 0.00 0.28 0.00 72 1003.3
20260504191539 7 343 12.9 22.5 0.00 0.28 0.00 71 1003.3
20260504190032 8 289 14.5 24.1 0.00 0.28 0.00 68 1003.3
20260504184515 8 304 11.3 24.1 0.00 0.28 0.00 65 1003.4
20260504183013 8 302 9.7 29.0 0.00 0.33 0.00 64 1003.3
20260504181557 10 238 11.3 22.5 0.00 0.33 0.00 55 1003.0
20260504180059 10 257 17.7 33.8 0.00 0.33 0.00 54 1002.9
20260504174535 10 345 14.5 33.8 0.00 0.33 0.00 50 1002.8
20260504173037 11 229 17.7 25.7 0.00 0.38 0.00 47 1002.5
20260504171517 11 313 17.7 29.0 0.00 0.38 0.00 43 1002.3
20260504081539 0 320 3.2 9.7 0.00 1.02 0.61 86 1002.8
20260504050015 2 348 12.9 20.9 0.00 1.07 0.61 83 1002.2
20260504044512 2 335 14.5 22.5 0.00 1.07 0.61 84 1002.2
20260504043058 2 333 12.9 24.1 0.00 1.07 0.61 85 1002.2
20260504041559 3 335 11.3 27.4 0.00 1.07 0.61 85 1002.2
20260504040053 3 348 8.0 20.9 0.00 1.07 0.61 87 1002.2
20260504034549 3 338 11.3 24.1 0.00 1.07 0.61 91 1002.0
20260504033047 3 342 11.3 19.3 0.00 1.07 0.61 92 1001.9
20260504031547 3 338 4.8 14.5 0.00 1.07 0.61 93 1001.9
20260504030042 3 335 8.0 16.1 0.00 1.07 0.61 93 1002.0
20260504024554 3 325 0.0 12.9 0.00 1.07 0.61 93 1002.0
20260504023029 3 360 1.6 4.8 0.00 1.07 0.61 93 1001.9
20260504021528 3 360 3.2 9.7 0.03 1.07 0.61 93 1001.8
20260504020028 3 355 1.6 11.3 0.03 1.07 0.61 93 1001.9
20260504014527 3 13 4.8 14.5 0.05 1.07 0.61 93 1001.9
20260504013034 4 336 4.8 19.3 0.05 1.07 0.61 94 1002.0
20260504011528 4 14 3.2 19.3 0.03 1.04 0.58 93 1002.1
20260504010023 4 14 4.8 22.5 0.05 1.04 0.58 94 1001.9
20260504004526 4 34 4.8 16.1 0.03 1.02 0.56 94 1001.9
20260504003004 4 319 3.2 12.9 0.03 1.02 0.56 93 1001.8
20260504001503 4 355 3.2 11.3 0.00 0.99 0.53 93 1001.7
20260504000112 4 333 3.2 14.5 0.03 0.99 0.53 93 1001.6
20260503234552 4 15 3.2 16.1 0.03 0.99 0.53 94 1001.6
20260503233031 4 340 3.2 16.1 0.03 1.02 0.53 94 1001.6
20260503231530 4 336 1.6 11.3 0.05 1.02 0.53 93 1001.6
20260503230028 4 348 1.6 9.7 0.03 0.99 0.51 93 1001.6
20260503224529 4 53 3.2 14.5 0.03 0.99 0.51 93 1001.8
20260503223036 4 16 1.6 6.4 0.03 0.99 0.51 93 1001.7
20260503221525 4 16 3.2 11.3 0.03 0.97 0.48 93 1001.7
20260503220024 4 22 1.6 9.7 0.03 0.97 0.48 93 1001.7
20260503214524 4 33 3.2 11.3 0.03 0.97 0.48 93 1001.9
20260503213021 4 27 1.6 8.0 0.03 0.97 0.48 93 1002.1